Location: De Soto Village
(34.9459°N, 90.0043°W)
Time: 08:02:17
(UTC+00:00)

Daily predictions for brighter satellites

Satellite Brightness Start Highest point End
(mag) Time Altitude Azimuth Time Altitude Azimuth Time Altitude Azimuth
CZ-3C R/B 3.9 12:00:03 10° SW 12:05:22 35° SSE 12:35:03 10° ESE
Helios 1A Rocket 2.7 12:02:29 10° S 12:05:40 43° W 12:08:52 10° NNW
USA 290 3.7 12:03:01 10° S 12:06:03 41° ESE 12:09:06 10° NNE
Cosmos 2322 Rocket 2.8 12:03:54 10° NW 12:09:05 38° WSW 12:14:13 10° S
Cosmos 1484 Rocket 2.8 12:06:46 10° N 12:09:56 39° WNW 12:13:04 10° SW
Cosmos 1602 Rocket 4.1 12:16:44 10° SSW 12:20:51 37° W 12:24:59 10° N
BREEZE M DEB (TANK) 3.7 12:19:39 10° NW 12:21:01 13° N 12:22:48 10° NNE
Cosmos 1812 Rocket 3.5 12:17:41 10° NNW 12:21:59 63° W 12:26:17 10° S
Meteor 1-25 Rocket 4.3 12:16:55 10° S 12:22:41 86° W 12:28:31 10° N
Cosmos 2221 2.5 12:20:41 10° NNW 12:24:43 53° W 12:28:45 10° S
Cosmos 2322 4.5 12:20:23 10° NNW 12:25:56 54° ENE 12:31:27 10° SE
Cosmos 1437 Rocket 2.5 12:24:40 10° NNW 12:28:06 60° W 12:31:33 10° S
IRIS 3.8 12:29:11 10° WSW 12:32:08 82° NNW 12:35:03 10° ENE
Okean 1-7 Rocket 4.0 12:28:16 10° SSW 12:32:32 42° W 12:36:47 10° N
ATLAS 2AS CENTAUR R/B 3.6 12:28:44 10° WSW 12:34:38 28° NW 12:40:27 10° N
Cosmos 1842 2.8 12:31:20 10° N 12:34:40 88° E 12:37:56 10° S
OAO 2 Rocket 3.5 12:32:11 10° W 12:37:25 83° S 12:42:33 10° ESE
ATLAS 5 CENTAUR R/B 4.5 22:42:11 10° S 22:47:45 50° ESE 23:08:15 10° NE
Cosmos 1898 Rocket 3.9 23:07:59 10° S 23:12:50 45° ESE 23:17:44 10° NNE
Sakura Rocket 4.4 23:15:52 10° WSW 23:21:05 39° S 23:25:06 10° ESE
Cosmos 2333 Rocket 4.0 23:20:31 10° ESE 23:22:16 11° E 23:24:00 10° E
IGS 5A 3.8 23:19:22 10° S 23:23:17 66° W 23:27:14 10° NNW
Okean 1 4.1 23:21:48 10° SSE 23:24:50 25° E 23:27:50 10° NE
SL-16 R/B 3.8 23:19:56 10° N 23:25:43 42° WNW 23:31:28 10° SW
Cosmos 1937 Rocket 3.9 23:21:28 10° S 23:26:20 43° ESE 23:31:11 10° NNE
Cosmos 2058 Rocket 3.4 23:23:53 10° SSE 23:28:07 44° E 23:32:22 10° NNE
USA 238 DEB 4.1 23:26:58 10° SW 23:32:48 53° NW 23:39:08 10° NNE
USA 238 4.1 23:27:03 10° SW 23:32:55 54° NW 23:39:17 10° NNE
Cosmos-2242 3.2 23:31:34 10° SSE 23:35:39 48° E 23:39:45 10° NNE
CZ-2D R/B 2.8 23:32:41 10° SSE 23:35:42 50° ENE 23:38:45 10° N
SL-24 R/B - RUBIN 2 4.0 23:38:45 10° SSW 23:44:25 71° ESE 23:49:23 10° NE
SAR-Lupe-4 3.4 23:43:19 10° SSE 23:46:51 78° ENE 23:50:24 10° N
Aureole 1 Rocket 4.2 23:45:59 10° SW 23:50:08 50° WNW 23:55:24 10° N
CZ-2D R/B 4.2 23:50:02 10° SE 23:53:40 29° ENE 23:57:15 10° NNE
ARIANE 5 R/B 2.6 23:48:51 10° SSE 23:53:54 84° W 23:59:02 10° NNW
Atlas Centaur 2 3.4 23:53:47 10° S 23:55:22 12° SSE 23:56:58 10° SE
